Content
SEND FEEDBACK

Daily
Averages
Monthly
Summary
United States of America

SAHUARITA, ARIZONA


Home > North America > United States > Arizona
Elevation: 2700 feet     Latitude: 31 59N     Longitude: 110 59W

WEATHER
 
SELECT A DAY
Number of Records: 108,982;   Date Range: 1/1/02 - 9/30/14
 
SHARE

PRINT THIS DATA

[ ← Previous Day ]
WEATHER ALMANAC - FEBRUARY 13, 2013
[ Next Day → ]
[ °C ]   °F
Weather ElementAverageHighLow
Temperature44.4 °F60.1 °F (3:53 pm)30.9 °F (4:53 am)
Dewpoint25.3 °F30.9 °F (10:53 pm)14 °F (3:53 pm)
Humidity54.5 %89 % (4:53 am)16 % (3:53 pm)
Barometer30.13 in30.21 in (8:53 am)30.06 in (4:53 pm)
Wind Speed4 mph9.2 mph (5:53 pm)
Weather ElementAverage
Visibility10 mi
Wind DirectionSSE (170.4 °)

Weather ElementTotal
Precipitation---
Heating Degree Days19.5 (Base 65)
Averaged from 23 records on February 13, 2013
WEATHER CONDITIONS BREAKOUT
WIND DIRECTION BREAKOUT
WEATHER BY HOUR - FEBRUARY 13, 2013
[ °C ]   °F
Local TimeTemperatureDewpointHumidityBarometerVisibilityWind DirectionWind SpeedGust SpeedPrecipitationEventsConditions
1:53 AM34.0 °F28.9 °F82 %30.18 in10.0 miSSE (150°)5.8 mphClear
2:53 AM34.0 °F28.9 °F82 %30.15 in10.0 miSW (230°)3.5 mphClear
3:53 AM32.0 °F28.9 °F88 %30.14 in10.0 miCalmClear
4:53 AM30.9 °F28.0 °F89 %30.14 in10.0 miWNW (300°)4.6 mphClear
5:53 AM32.0 °F28.0 °F85 %30.15 in10.0 miESE (110°)3.5 mphClear
6:53 AM33.1 °F28.0 °F82 %30.17 in10.0 miCalmClear
7:53 AM30.9 °F28.0 °F89 %30.19 in10.0 miSouth (180°)5.8 mphClear
8:53 AM35.1 °F28.9 °F78 %30.21 in10.0 miSouth (170°)6.9 mphClear
9:53 AM39.9 °F28.9 °F65 %30.20 in10.0 miSouth (180°)4.6 mphClear
10:53 AM45.0 °F26.1 °F48 %30.19 in10.0 miSSW (200°)3.5 mphClear
11:53 AM48.9 °F25.0 °F39 %30.17 in10.0 miCalmClear
12:53 PM54.0 °F21.9 °F29 %30.13 in10.0 miCalmClear
1:53 PM55.9 °F19.9 °F25 %30.11 in10.0 miCalmClear
2:53 PM59.0 °F15.1 °F18 %30.08 in10.0 miVariable3.5 mphClear
3:53 PM60.1 °F14.0 °F16 %30.07 in10.0 miNNW (340°)3.5 mphClear
4:53 PM60.1 °F15.1 °F17 %30.06 in10.0 miWNW (290°)6.9 mphClear
5:53 PM57.0 °F24.1 °F28 %30.07 in10.0 miNNW (340°)9.2 mphClear
6:53 PM53.1 °F24.1 °F32 %30.09 in10.0 miNNW (330°)5.8 mphClear
7:53 PM51.1 °F25.0 °F36 %30.11 in10.0 miNW (310°)3.5 mphClear
8:53 PM48.0 °F27.0 °F44 %30.12 in10.0 miSW (220°)5.8 mphClear
9:53 PM45.0 °F28.0 °F52 %30.12 in10.0 miWSW (250°)3.5 mphClear
10:53 PM41.0 °F30.9 °F67 %30.12 in10.0 miSSE (160°)6.9 mphClear
11:53 PM42.1 °F30.0 °F62 %30.11 in10.0 miSSE (160°)4.6 mphClear
Hourly data recorded from KTUS, located miles away from Sahuarita, Arizona







STORIES FROM OUR PARTNERS